Current weather by "City, St" or "zip code"  
 

Current Conditions: Madison, Dane County Regional-Truax Field, WI

Fog/Mist


27.0 F

Last Updated on Feb 27 2021, 11:53 pm CST
Humidity: 96%
Wind Speed: N 0.0 mph
Barometer 29.96 in
Dewpoint: 26.1 F
Visibility: 2.00 mi
Precip: --
Heat Index: NA
Wind Chill: NA
Current conditions at:

Madison, Dane County Regional-Truax Field, WI (KMSN)

Lat: 43.14056 Lon: 89.34528

Local Radar Image active severe weather and emergency alerts image image weather storm and storm spotter reports image weather observation monitoring service image
Local
Radar
Active
Alerts
Storm Reports Obs
Monitoring

Sign-up For Email & Text Message Weather Alert Notification Services



Advertise Here

Observation History for Madison, Dane County Regional-Truax Field, WI


Time Wind
(mph)
Vis
(mi)
Weather Precip (in) Temperature (F) Relative
Humidity
Wind
Chill
(F)
Heat
Index
(F)
Pressure
Air Dwpt altimeter
(in)
sea level
(mb)
Rmks
11:53 pm CST N 0.0 2.00 Fog/Mist -- 27.0 26.1 96% NA NA 29.96 1015.3
10:53 pm CST N 0.0 6.00 Fog/Mist -- 27.0 27.0 100% NA NA 29.97 1015.8
9:53 pm CST N 0.0 5.00 Fog/Mist -- 32.0 30.0 92% NA NA 29.98 1016.2
8:53 pm CST SE 4.6 7.00 A Few Clouds -- 33.0 30.0 89% 29 NA 29.99 1016.5
7:53 pm CST SE 3.5 9.00 Partly Cloudy -- 35.0 30.0 82% NA NA 30.00 1016.8
6:53 pm CST S 5.8 10.00 Partly Cloudy -- 38.0 30.9 76% 34 NA 30.01 1017.3
5:53 pm CST S 4.6 10.00 Partly Cloudy -- 40.0 30.9 70% 37 NA 30.00 1016.9
4:53 pm CST S 9.2 10.00 Partly Cloudy -- 43.0 30.0 60% 38 NA 30.01 1016.9
3:53 pm CST S 9.2 10.00 Mostly Cloudy -- 44.0 30.0 58% 39 NA 30.01 1016.9
2:53 pm CST S 9.2 10.00 Mostly Cloudy -- 45.0 30.0 56% 40 NA 29.99 1016.3
1:53 pm CST S 9.2 10.00 Mostly Cloudy -- 44.0 30.0 58% 39 NA 29.99 1016.3
12:53 pm CST SW 6.9 10.00 A Few Clouds -- 44.0 30.0 58% 40 NA 29.99 1016.5
11:53 am CST SW 8.1 10.00 Fair -- 42.0 30.9 65% 37 NA 30.00 1016.6
10:53 am CST S 10.4 10.00 Fair -- 40.0 30.9 70% 33 NA 29.97 1015.6
9:53 am CST S 5.8 9.00 Fair -- 37.0 30.9 79% 32 NA 29.94 1014.8
8:53 am CST S 5.8 7.00 Fair -- 34.0 30.0 85% 29 NA 29.93 1014.3
7:53 am CST S 4.6 5.00 Fog/Mist -- 30.0 28.9 96% 25 NA 29.89 1013.3
6:53 am CST N 0.0 5.00 Fog/Mist -- 26.0 25.0 96% NA NA 29.86 1012.2
5:53 am CST N 0.0 6.00 Fog/Mist -- 30.0 28.0 92% NA NA 29.84 1011.5
4:53 am CST N 0.0 6.00 Fog/Mist -- 31.0 28.9 92% NA NA 29.82 1010.5
3:53 am CST SW 3.5 5.00 Fog/Mist -- 30.0 28.9 96% NA NA 29.80 1010.0
2:53 am CST SW 3.5 5.00 Fog/Mist -- 31.0 30.0 96% NA NA 29.80 1010.1
1:53 am CST S 5.8 5.00 Fog/Mist -- 32.0 30.0 92% 26 NA 29.81 1010.2
12:53 am CST S 3.5 6.00 Fog/Mist -- 33.0 30.9 92% NA NA 29.81 1010.3

Regional Weather Observation


Madison, Dane County Regional-Truax Field, WI (KMSN)

Fog/Mist
27.0 F

Baraboo Wisconsin Dells Airport, WI (KDLL)

Mostly Cloudy
32.0 F

Reedsburg Municipal Airport, WI (KC35)

Mostly Cloudy
31.0 F

Lone Rock Tri-County Regional Airport, WI (KLNR)

Fog/Mist
26.0 F

New Lisbon Mauston Airport, WI (K82C)

Partly Cloudy
30.0 F

Watertown, WI (KRYV)

Fair
32.0 F

Advertise Here


Advertise Here